Regional Weather Roundup
Issued by NWS Grand Forks, ND

Home | Current Version | Previous Version | Text Only | Print | Product List | Glossary Off
Versions: 1 2 3 4 5 6 7 8 9 10 11 12 13 14 15 16 17 18 19 20 21 22 23 24 25 26 27 28 29 30 31 32 33 34 35 36 37 38 39 40 41 42 43 44 45 46 47 48 49 50

000
ASUS43 KFGF 240231
RWRFGF
PRAIRIE TO PINES  WEATHER ROUNDUP
NATIONAL WEATHER SERVICE EASTERN NORTH DAKOTA/GRAND FORKS ND
900 PM CDT TUE AUG 23 2016

 **SATELLITE DATA USED TO AUGMENT SKY COVER AT AUTOMATED STATIONS**
 *****  WEATHER ACROSS EASTERN NORTH DAKOTA  *****

CITY           SKY/WX    TMP DP  RH WIND       PRES   REMARKS
GRAND FORKS    MOCLDY    74  68  81 W7        29.70R
GRAND FRKS AFB PTCLDY    73  67  82 W8        29.73R
GRAND FRKS NWS   N/A     73 N/A N/A NW6         N/A
DEVILS LAKE    CLEAR     68  52  56 W9        29.80R
FARGO          CLOUDY    79  64  60 S13       29.74R
WAHPETON ARPT  PTCLDY    72  64  78 SE6       29.78R
$$

 ***** WEATHER ACROSS CENTRAL AND WESTERN NORTH DAKOTA  *****

CITY           SKY/WX    TMP DP  RH WIND       PRES   REMARKS
BISMARCK       CLEAR     67  47  48 W7        29.87R
MINOT          CLEAR     69  45  41 SW6       29.82R
JAMESTOWN      CLOUDY    66  53  63 NW9       29.81R
MINOT AFB      CLEAR     62  48  58 W8        29.81R
GARRISON         N/A     68  44  42 W9        29.86R
WILLISTON      CLEAR     69  43  38 W16G25    29.89R
DICKINSON      CLEAR     61  36  39 W5        29.91S
HETTINGER      CLEAR     61  41  47 NW5       29.97R
$$

 *****  OTHER AIRPORT OBSERVATIONS IN OUR AREA  *****

CITY           SKY/WX    TMP DP  RH WIND       PRES   REMARKS
WALHALLA       FAIR      72  68  88 NW7       29.72R
GRAFTON AIRPOR MOCLDY    73  68  83 W14       29.72R
VALLEY CITY AR FAIR      70  55  60 NW13      29.81R
CANDO          FAIR      57  54  88 W7        29.82R
CAVALIER APRT  FAIR      73  68  83 W8        29.71R
GWINNER        MOCLDY    75  66  73 NW10      29.78R
SHEYENNE NWR     N/A     77  67  71 S6        29.95S
ROLLA          FAIR      55  52  88 W7        29.82R
 ***** THE ABOVE OBSERVATIONS ARE NON NWS ARE NOT QUALITY
       CONTROLLED AND MAY MIS-REPORT RAIN FOR SNOW...
$$

  *****  WEATHER ACROSS NORTHERN MINNESOTA  *****

CITY           SKY/WX    TMP DP  RH WIND       PRES   REMARKS
FLAG ISLAND    CLOUDY    75  70  83 S3        29.68R
WARROAD        CLOUDY    79  72  78 S6        29.70R
ROSEAU         MOCLDY    77  72  83 S8        29.69R
HALLOCK        CLOUDY    75  70  83 W9        29.68R
THF RVR FALLS  MOCLDY    78  64  61 S14       29.73R
BAUDETTE       PTCLDY    77  66  68 S9        29.73R
WASKISH        CLEAR     75  70  83 CALM      29.76R
CROOKSTON      MOCLDY    79  64  61 SW6       29.73R
STEPHEN NDAWN    N/A     75  70  83 W7          N/A
GREENBUSH NDAW   N/A     77  70  78 S6          N/A
$$
  *****  WEATHER ACROSS CENTRAL AND WEST MINNESOTA  *****

CITY           SKY/WX    TMP DP  RH WIND       PRES   REMARKS
FOSSTON        CLEAR     72  63  73 S15       29.78R
BEMIDJI        CLEAR     74  69  85 S6        29.79R
PARK RAPIDS    PTCLDY    76  69  79 S8        29.81R
ELBOW LAKE     FAIR      71  67  88 S8        29.81R
WADENA         CLOUDY    72  66  83 SE7       29.81R
DETROIT LAKES  CLEAR     73  64  73 S8        29.81R
MOORHEAD       CLOUDY    75  64  69 S9        29.76S
FERGUS FALLS   CLOUDY    72  66  83 S5        29.80R
MORRIS MN      CLOUDY    70  64  83 SE6       29.79S
STAPLES        CLOUDY    73  66  78 S9        29.82S
$$
  *****  WEATHER ELSEWHERE ACROSS MINNESOTA  *****

CITY           SKY/WX    TMP DP  RH WIND       PRES   REMARKS
DULUTH         CLOUDY    74  67  78 S14       29.89R
INTRNTL FALLS  CLEAR     76  67  73 VRB3      29.77R
ELY            CLEAR     73  64  73 S7        29.86R
CLOQUET        CLOUDY    73  64  73 SE3       29.88S
WHEATON        MOCLDY    73  70  88 SE6       29.79R
BRAINERD       CLOUDY    73  66  78 S7        29.84R
HIBBING        CLOUDY    73  68  84 S6        29.85R
ALEXANDRIA     PTCLDY    73  67  81 S8        29.83R
SAINT CLOUD    CLOUDY    71  65  81 SE7       29.83S
MINNEAPOLIS    LGT RAIN  70  66  87 SE13      29.85R
$$

  *****  WEATHER ACROSS SOUTH DAKOTA  *****

CITY           SKY/WX    TMP DP  RH WIND       PRES   REMARKS
SIOUX FALLS    CLOUDY    73  70  90 E5        29.80R
BROOKINGS      CLOUDY    70  66  88 SE8       29.80S
WATERTOWN      MOCLDY    71  68  90 S6        29.79R
HURON          PTCLDY    77  69  76 NW21      29.77R
SISSETON         N/A     74  67  78 S6        29.76R
ABERDEEN       MOCLDY    74  63  68 N10       29.78R
MITCHELL       CLEAR     74  71  91 SE7       29.76S
PIERRE         PTCLDY    71  44  37 N12       29.87R
MOBRIDGE       PTCLDY    74  42  31 NW10      29.86R
RAPID CITY     PTCLDY    68  34  28 N7        30.00R
$$

  *****  SOME WEATHER IN NEARBY STATES *****

CITY           SKY/WX    TMP DP  RH WIND       PRES   REMARKS
GLASGOW MT     PTCLDY    63  47  55 W23G32    29.95R
GREAT FALLS MT CLOUDY    62  40  44 N14       30.19R
CHEYENNE WY    CLOUDY    71  34  25 SW12G25   30.16R
SCOTTSBLUFF NE CLEAR     65  44  46 NE10      30.02R
OMAHA NE       CLOUDY    82  71  69 SE20G28   29.78F
DES MOINES IA  MOCLDY    78  72  81 S15       29.89R
DAVENPORT IA   CLOUDY    73  68  84 S14G20    30.03S
CHICAGO IL     MOCLDY    75  61  61 S12       30.10F
EAU CLAIRE WI  LGT RAIN  73  64  73 SE8       29.94R
LA CROSSE WI   TSTM      74  74 100 SE14      29.91F
$$

  *****  SOME NATIONAL WEATHER *****

CITY           SKY/WX    TMP DP  RH WIND       PRES   REMARKS
LA GUARDIA NY  CLEAR     77  59  53 S5        30.26R
RALEIGH NC     PTCLDY    77  60  55 E9        30.28R
ATLANTA GA     PTCLDY    82  70  66 E8        30.24R
NEW ORLEANS LA PTCLDY    87  75  67 SW8       30.15R HX  96
OKLAHOMA CITY  CLOUDY    83  71  67 S12       29.98R
ALBUQUERQUE NM MOCLDY    76  46  34 N12       30.15R
SALT LAKE CITY PTCLDY    84  30  14 N9        30.01R
LOS ANGELES CA CLEAR     69  60  73 W12       29.99S
BOISE ID       CLEAR     78  24  13 NW13      30.05F
SEATTLE WA     MOSUNNY   77  50  38 N12       30.16F
$$

*** WEATHER ACROSS MANITOBA...SASKATCHEWAN AND ONTARIO ***
                ***ONTARIO***

CITY           SKY/WX    TMP DP  RH WIND       PRES   REMARKS
GERALDTON      PTCLDY    68  61  77 S7        29.89F
THUNDER BAY    CLEAR     70  63  78 SW3       29.85F
SIOUX LOOKOUT  MOCLDY    75  68  78 SE6       29.75R
TORONTO        PTCLDY    73  55  53 SW8       30.22R
BIG TROUT LK   CLEAR     59  50  72 E5        29.91F
PICKLE LAKE    TSTM      63  61  94 NE7       29.92R
DRYDEN         CLOUDY    77  68  73 S8        29.74S
KENORA         CLOUDY    75  68  78 SE7       29.70F
$$
                *** MANITOBA***

CITY           SKY/WX    TMP DP  RH WIND       PRES   REMARKS
BRANDON        MOCLDY    64  55  72 W9        29.76R
DAUPHIN        CLEAR    N/A N/A N/A W9        29.71S
ISLAND LAKE    CLOUDY    63  52  67 E8        29.87R
PILOT MOUND      N/A     63  52  67 NW7         N/A
THE PAS        CLOUDY    61  50  67 NE10G24   29.84F
THOMPSON       MOCLDY    61  48  63 NE6       29.93S
WINNIPEG       CLOUDY    70  70 100 W13       29.64R
LYNN LAKE      PTCLDY    61  46  59 MISG      30.00S
CHURCHILL      PTCLDY    52  48  87 N6        29.98R
GILLAM         MOCLDY    63  52  67 N7        29.92S
$$
                ***SASKATCHEWAN***

CITY           SKY/WX    TMP DP  RH WIND       PRES   REMARKS
ESTEVAN        PTCLDY    64  46  52 W6        29.81R
KINDERSLEY     LGT RAIN  55  52  88 N20G26    29.95R
LLOYDMINSTER   CLOUDY    52  46  82 N13       30.07R
PRINCE ALBERT  CLOUDY    57  54  88 N12G20    29.82R
REGINA         LGT RAIN  59  50  72 SW12      29.79R
YORKTON        CLEAR     63  50  63 SW5       29.75S
N. BATTLEFORD  NOT AVBL
LA RONGE       LGT RAIN  55  50  82 N10       30.00R
SASKATOON      LGT RAIN  55  55 100 N13G18    29.83R
SWIFT CURRENT  CLOUDY    54  52  94 NW23G32   29.89R
$$
NOTE: THESE ARE AUTOMATED STATIONS WITH LIMITED QUALITY CONTROL
      "FAIR" INDICATES FEW OR NO CLOUDS BELOW 12,000 FEET WITH NO
      SIGNIFICANT WEATHER AND/OR OBSTRUCTIONS TO VISIBILITY.
      SKY/WX - SKY CONDITION AND SIGNIFICANT WEATHER.
      TMP - AIR TEMPERATURE.    DP   - DEWPOINT TEMPERATURE.
      RH  - RELATIVE HUMIDITY.  PRES - PRESSURE.
      HX  - HEAT INDEX.         WCI  - WIND CHILL INDEX.
$




USA.gov is the U.S. government's official web portal to all federal, state and local government web resources and services.